Location: Bathsheba
(13.2167°N, 59.5167°W)
Time: 23:41:35
(UTC+00:00)

Meteor 1-23 Rocket - Pass Details

Date: 18 September 2020
Orbit: 835 x 890 km, 81.3° (Epoch: 20 October)

Event Time Altitude Azimuth Distance (km) Brightness Sun altitude
Rises 22:19:21 0° 354° (N) 3,389 7.5 -6.4°
Reaches altitude 10° 22:21:46 10° 355° (N) 2,449 6.7 -6.9°
Maximum altitude 22:27:19 90° 77° (ENE) 838 4.2 -8.3°
Drops below altitude 10° 22:32:51 10° 175° (S) 2,439 6.5 -9.6°
Sets 22:35:15 0° 175° (S) 3,374 7.2 -10.2°
